• In Russia
  • List of Countries
  • For 7 days
  • Water Temperature
  • Satellite Maps
  • Weather Map
  • Weather Widgets
  • user-avatar
    Login

    Hourly Weather Escaldes-Engordany

    Today, 19 June, Tuesday

    Time Temperature Precipitation Wind Pressure Humidity
    00:00 +9°C° 0 mm 2 mps 644 mmHg 83%
    01:00 +9°C° 0 mm 2 mps 643 mmHg 83%
    02:00 +9°C° 0 mm 2 mps 643 mmHg 83%
    03:00 +9°C° 0 mm 2 mps 643 mmHg 83%
    04:00 +10°C° 0 mm 2 mps 644 mmHg 80%
    05:00 +12°C° 0 mm 2 mps 644 mmHg 78%
    06:00 +13°C° 0 mm 2 mps 644 mmHg 76%
    07:00 +15°C° 0 mm 2 mps 645 mmHg 67%
    08:00 +18°C° 0 mm 1 mps 646 mmHg 58%
    09:00 +21°C° 0 mm 1 mps 647 mmHg 49%
    10:00 +22°C° 0 mm 1 mps 647 mmHg 47%
    11:00 +23°C° 0 mm 1 mps 647 mmHg 45%
    12:00 +24°C° 0 mm 1 mps 647 mmHg 43%
    13:00 +24°C° 0 mm 1 mps 647 mmHg 45%
    14:00 +24°C° 0 mm 2 mps 646 mmHg 47%
    15:00 +24°C° 0 mm 2 mps 646 mmHg 49%
    16:00 +23°C° 0 mm 1 mps 646 mmHg 55%
    17:00 +22°C° 0 mm 1 mps 645 mmHg 61%
    18:00 +21°C° 0 mm 1 mps 645 mmHg 67%
    19:00 +19°C° 0 mm 1 mps 644 mmHg 73%
    20:00 +18°C° 0 mm 1 mps 644 mmHg 79%
    21:00 +15°C° 0 mm 1 mps 644 mmHg 84%
    22:00 +14°C° 0 mm 1 mps 644 mmHg 85%
    23:00 +14°C° 0 mm 1 mps 643 mmHg 86%

    Tomorrow, 20 June, Wednesday

    Time Temperature Precipitation Wind Pressure Humidity
    00:00 +13°C° 0 mm 1 mps 643 mmHg 87%
    01:00 +13°C° 0 mm 1 mps 643 mmHg 87%
    02:00 +13°C° 0 mm 1 mps 643 mmHg 86%
    03:00 +13°C° 0 mm 1 mps 643 mmHg 85%
    04:00 +14°C° 0 mm 1 mps 643 mmHg 82%
    05:00 +15°C° 0 mm 1 mps 643 mmHg 78%
    06:00 +16°C° 0 mm 1 mps 644 mmHg 75%
    07:00 +19°C° 0 mm 1 mps 644 mmHg 67%
    08:00 +21°C° 0 mm 1 mps 645 mmHg 60%
    09:00 +23°C° 0 mm 1 mps 646 mmHg 52%
    10:00 +23°C° 0.1 mm 2 mps 646 mmHg 51%
    11:00 +24°C° 0.1 mm 2 mps 646 mmHg 51%
    12:00 +24°C° 0.1 mm 2 mps 646 mmHg 51%
    13:00 +24°C° 0.2 mm 2 mps 645 mmHg 53%
    14:00 +23°C° 0.2 mm 2 mps 645 mmHg 55%
    15:00 +23°C° 0.2 mm 1 mps 645 mmHg 58%
    16:00 +22°C° 0.1 mm 1 mps 645 mmHg 61%
    17:00 +22°C° 0.1 mm 1 mps 644 mmHg 64%
    18:00 +21°C° 0.1 mm 1 mps 644 mmHg 67%
    19:00 +20°C° 0.1 mm 1 mps 644 mmHg 71%
    20:00 +18°C° 0.1 mm 1 mps 643 mmHg 75%
    21:00 +14°C° 0.1 mm 0 mps 643 mmHg 79%
    22:00 +15°C° 0 mm 1 mps 643 mmHg 80%
    23:00 +15°C° 0 mm 1 mps 643 mmHg 81%

    Day after tomorrow, 21 June, Thursday

    Time Temperature Precipitation Wind Pressure Humidity
    00:00 +14°C° 0 mm 1 mps 643 mmHg 82%
    01:00 +14°C° 0 mm 1 mps 642 mmHg 82%
    02:00 +14°C° 0 mm 1 mps 642 mmHg 82%
    03:00 +14°C° 0 mm 1 mps 642 mmHg 82%
    04:00 +14°C° 0 mm 1 mps 642 mmHg 79%
    05:00 +15°C° 0 mm 1 mps 643 mmHg 77%
    06:00 +16°C° 0 mm 1 mps 643 mmHg 74%
    07:00 +19°C° 0 mm 1 mps 644 mmHg 64%
    08:00 +21°C° 0 mm 1 mps 645 mmHg 54%
    09:00 +24°C° 0 mm 1 mps 645 mmHg 44%
    10:00 +25°C° 0 mm 1 mps 645 mmHg 43%
    11:00 +26°C° 0 mm 1 mps 646 mmHg 41%
    12:00 +27°C° 0 mm 1 mps 646 mmHg 40%
    13:00 +26°C° 0.1 mm 1 mps 645 mmHg 45%
    14:00 +25°C° 0.1 mm 1 mps 645 mmHg 50%
    15:00 +24°C° 0.1 mm 1 mps 644 mmHg 55%
    16:00 +23°C° 0.5 mm 1 mps 644 mmHg 60%
    17:00 +22°C° 0.5 mm 1 mps 643 mmHg 66%
    18:00 +21°C° 0.5 mm 1 mps 643 mmHg 72%
    19:00 +20°C° 0.2 mm 1 mps 643 mmHg 76%
    20:00 +18°C° 0.2 mm 1 mps 643 mmHg 81%
    21:00 +16°C° 0.2 mm 1 mps 642 mmHg 85%
    22:00 +16°C° 0 mm 1 mps 642 mmHg 85%
    23:00 +15°C° 0 mm 2 mps 642 mmHg 86%

    22 June, Friday

    Time Temperature Precipitation Wind Pressure Humidity
    00:00 +15°C° 0 mm 2 mps 642 mmHg 87%
    01:00 +15°C° 0 mm 2 mps 642 mmHg 87%
    02:00 +14°C° 0 mm 2 mps 641 mmHg 86%
    03:00 +14°C° 0 mm 2 mps 641 mmHg 86%
    04:00 +15°C° 0 mm 2 mps 642 mmHg 85%
    05:00 +15°C° 0 mm 2 mps 642 mmHg 84%
    06:00 +16°C° 0 mm 2 mps 642 mmHg 82%
    07:00 +18°C° 0 mm 2 mps 643 mmHg 75%
    08:00 +20°C° 0 mm 2 mps 643 mmHg 67%
    09:00 +21°C° 0 mm 2 mps 644 mmHg 60%
    10:00 +23°C° 0.3 mm 2 mps 644 mmHg 60%
    11:00 +23°C° 0.3 mm 2 mps 644 mmHg 60%
    12:00 +23°C° 0.3 mm 2 mps 644 mmHg 60%
    13:00 +21°C° 0.8 mm 2 mps 643 mmHg 63%
    14:00 +21°C° 0.8 mm 2 mps 643 mmHg 67%
    15:00 +20°C° 0.8 mm 2 mps 642 mmHg 71%
    16:00 +19°C° 0.4 mm 2 mps 642 mmHg 74%
    17:00 +18°C° 0.4 mm 2 mps 642 mmHg 77%
    18:00 +18°C° 0.4 mm 2 mps 642 mmHg 80%
    19:00 +17°C° 0.1 mm 2 mps 642 mmHg 84%
    20:00 +16°C° 0.1 mm 2 mps 642 mmHg 87%
    21:00 +15°C° 0.1 mm 2 mps 642 mmHg 90%
    22:00 +14°C° 0 mm 2 mps 642 mmHg 90%
    23:00 +14°C° 0 mm 1 mps 641 mmHg 91%

    23 June, Saturday

    Time Temperature Precipitation Wind Pressure Humidity
    00:00 +14°C° 0 mm 1 mps 641 mmHg 91%
    01:00 +13°C° 0 mm 1 mps 641 mmHg 91%
    02:00 +13°C° 0 mm 1 mps 641 mmHg 91%
    03:00 +13°C° 0 mm 1 mps 641 mmHg 91%
    04:00 +13°C° 0 mm 1 mps 641 mmHg 89%
    05:00 +14°C° 0 mm 1 mps 642 mmHg 86%
    06:00 +14°C° 0 mm 1 mps 642 mmHg 84%
    07:00 +16°C° 0 mm 1 mps 643 mmHg 76%
    08:00 +19°C° 0 mm 1 mps 643 mmHg 68%
    09:00 +21°C° 0 mm 1 mps 644 mmHg 60%
    10:00 +21°C° 0.1 mm 1 mps 644 mmHg 59%
    11:00 +20°C° 0.1 mm 2 mps 644 mmHg 58%
    12:00 +21°C° 0.1 mm 2 mps 644 mmHg 57%
    13:00 +20°C° 0.4 mm 2 mps 643 mmHg 58%
    14:00 +20°C° 0.4 mm 2 mps 643 mmHg 59%
    15:00 +21°C° 0.4 mm 1 mps 643 mmHg 60%
    16:00 +20°C° 0.5 mm 1 mps 643 mmHg 63%
    17:00 +20°C° 0.5 mm 1 mps 642 mmHg 66%
    18:00 +19°C° 0.5 mm 1 mps 642 mmHg 70%
    19:00 +18°C° 0.1 mm 1 mps 642 mmHg 75%
    20:00 +15°C° 0.1 mm 1 mps 641 mmHg 80%
    21:00 +14°C° 0.1 mm 1 mps 641 mmHg 85%
    22:00 +13°C° 0 mm 1 mps 641 mmHg 86%
    23:00 +13°C° 0 mm 1 mps 641 mmHg 88%

    24 June, Sunday

    Time Temperature Precipitation Wind Pressure Humidity
    00:00 +13°C° 0 mm 1 mps 641 mmHg 89%
    01:00 +13°C° 0 mm 1 mps 641 mmHg 89%
    02:00 +13°C° 0 mm 1 mps 640 mmHg 90%
    03:00 +13°C° 0 mm 1 mps 640 mmHg 90%
    04:00 +13°C° 0 mm 1 mps 641 mmHg 89%
    05:00 +14°C° 0 mm 1 mps 641 mmHg 87%
    06:00 +15°C° 0 mm 1 mps 641 mmHg 85%
    07:00 +16°C° 0 mm 1 mps 642 mmHg 78%
    08:00 +19°C° 0 mm 1 mps 642 mmHg 71%
    09:00 +20°C° 0 mm 1 mps 643 mmHg 64%
    10:00 +21°C° 0.2 mm 1 mps 643 mmHg 60%
    11:00 +22°C° 0.2 mm 1 mps 643 mmHg 56%
    12:00 +23°C° 0.2 mm 1 mps 643 mmHg 53%
    13:00 +23°C° 1.2 mm 2 mps 643 mmHg 54%
    14:00 +23°C° 1.2 mm 2 mps 642 mmHg 55%
    15:00 +23°C° 1.2 mm 2 mps 642 mmHg 56%
    16:00 +21°C° 1.2 mm 2 mps 642 mmHg 60%
    17:00 +21°C° 1.2 mm 1 mps 641 mmHg 64%
    18:00 +19°C° 1.2 mm 1 mps 641 mmHg 68%
    19:00 +18°C° 0.1 mm 1 mps 641 mmHg 73%
    20:00 +15°C° 0.1 mm 1 mps 641 mmHg 77%
    21:00 +14°C° 0.1 mm 1 mps 640 mmHg 81%
    22:00 +13°C° 0 mm 1 mps 640 mmHg 82%
    23:00 +13°C° 0 mm 1 mps 640 mmHg 83%
    Show more